Hourly Data Report for October 06, 2016

All times are specified in Local Standard Time (LST). Add 1 hour to adjust for Daylight Saving Time where and when it is observed.

KITCHENER/WATERLOO
ONTARIO

43°27'39.000" N
80°22'43.000" W
321.60 m
6144239
71368
YKF

Download Data

Hourly Data (October 2016)
Hourly Data Report for October 6, 2016
Temp Definition
°C
Dew Point Temp Definition
°C
Rel Hum Definition
%
Wind Dir Definition
10's deg

Wind Spd Definition
km/h
Visibility Definition
km
Stn Press Definition
kPa
Hmdx Definition


Wind Chill Definition


Weather Definition


TIME
00:00 Legend Double Dagger 15.2 13.1 87 17 17 16.1 98.38     LegendNANA
01:00 Legend Double Dagger 15.4 13.2 87 18 13 16.1 98.41     LegendNANA
02:00 Legend Double Dagger 15.3 13.1 87 18 11 16.1 98.41     Rain
03:00 Legend Double Dagger 15.1 13.0 87 18 9 16.1 98.38     LegendNANA
04:00 Legend Double Dagger 14.4 12.6 89 18 5 16.1 98.41     LegendNANA
05:00 Legend Double Dagger 13.1 12.2 94 15 5 16.1 98.43     LegendNANA
06:00 Legend Double Dagger 12.2 11.7 97   0 2.0 98.44     Fog
07:00 Legend Double Dagger 10.7 10.3 97 1 4 2.4 98.50     Fog
08:00 Legend Double Dagger 14.8 13.9 94 LegendMM 4 16.1 98.53     LegendNANA
09:00 Legend Double Dagger 17.6 14.5 82 19 9 16.1 98.54     LegendNANA
10:00 Legend Double Dagger 19.7 15.1 74 16 9 16.1 98.56     LegendNANA
11:00 Legend Double Dagger 21.0 15.6 71 LegendMM 4 16.1 98.56 25   LegendNANA
12:00 Legend Double Dagger 23.3 15.9 63 17 13 6.4 98.53 28   Haze
13:00 Legend Double Dagger 24.0 17.0 65 14 11 8.1 98.51 29   Haze
14:00 Legend Double Dagger 24.6 16.7 61 16 15 9.7 98.46 30   Haze
15:00 Legend Double Dagger 24.8 15.8 57 16 11 14.5 98.47 29   LegendNANA
16:00 Legend Double Dagger 24.3 16.1 60 17 11 16.1 98.47 29   LegendNANA
17:00 Legend Double Dagger 22.7 16.6 68 15 11 16.1 98.49 28   LegendNANA
18:00 Legend Double Dagger 19.2 15.7 80 13 11 16.1 98.49     LegendNANA
19:00 Legend Double Dagger 17.8 15.1 84 12 13 16.1 98.53     LegendNANA
20:00 Legend Double Dagger 16.0 14.0 88 11 9 16.1 98.56     LegendNANA
21:00 Legend Double Dagger 14.7 13.4 92 10 4 16.1 98.55     LegendNANA
22:00 Legend Double Dagger 14.3 13.4 94 7 5 14.5 98.53     LegendNANA
23:00 Legend Double Dagger 13.8 13.2 96 7 5 6.4 98.48     Fog

Notes on Data Quality.

Legend

  • E = Estimated
  • M = Missing
  • NA = Not Available
  • ‡ = Partner data that is not subject to review by the National Climate Archives
Date modified: